Temp
25 24 24 24 24 24 25 24 25 25 25 25 25 25 25 25 25 26 26 24 23 23 22 22 21 21 21 20 20 20 19 19 20 19 19 19 19 19 19 19 19 19 19
25 23 24 25 24 24 25 23 23 23 23 24 24 24 24 24 24 23 25 25 24 23 23 22 22 21 21 20 20 20 20 19 19 19 19 20 19 19 19 19 19 19 20
23 23 24 24 25 25 23 23 23 24 24 25 25 24 24 24 24 24 24 24 25 24 23 22 22 22 21 21 20 20 21 20 20 20 20 20 20 19 19 20 20 19 20
23 23 23 24 25 24 24 23 23 25 25 25 25 25 25 24 25 24 24 24 25 25 24 23 22 22 22 21 21 21 20 20 21 20 20 20 20 20 20 20 20 20 20
24 23 23 24 23 24 23 24 25 24 24 25 25 25 25 24 24 25 24 23 24 24 25 24 22 22 22 21 21 21 21 21 20 20 20 20 20 20 20 20 20 20 20
24 24 24 24 23 24 24 24 23 23 23 24 24 25 24 24 24 24 24 24 23 23 24 23 23 24 22 22 21 21 21 21 21 21 21 20 20 20 20 20 20 20 20
23 24 25 24 23 23 24 23 23 24 24 24 23 25 25 23 24 24 24 24 23 23 22 22 23 24 23 21 21 20 20 20 20 21 20 20 21 20 20 20 20 20 20
24 23 24 24 24 25 22 22 22 23 24 23 24 25 27 26 25 24 23 23 22 23 23 22 21 21 21 20 20 20 20 20 20 20 20 20 20 20 20 20 20 20 21
24 23 23 24 23 23 25 23 22 22 24 23 21 23 26 27 26 24 23 23 22 23 23 22 20 19 19 20 20 19 19 20 20 20 20 19 19 20 20 20 20 20 20
24 23 23 23 22 24 23 23 22 22 21 24 23 22 22 22 26 26 24 23 23 23 21 22 21 20 20 20 19 19 20 20 20 19 19 20 20 20 20 20 20 20 20
23 24 23 22 22 23 22 22 21 21 22 22 23 23 22 23 22 24 26 25 24 23 22 22 22 22 20 20 20 18 19 19 19 19 19 19 20 20 20 20 20 20 20
24 23 23 22 22 23 21 21 21 20 20 21 22 22 23 24 24 24 25 25 24 24 23 22 22 21 21 21 20 19 19 19 18 19 19 19 19 19 19 19 18 18 19
25 23 22 21 22 21 21 21 20 21 20 21 21 22 22 23 23 23 23 24 24 24 23 23 22 22 21 20 20 19 18 18 19 19 19 19 19 19 19 19 19 19 18
25 24 21 22 22 21 21 20 21 21 21 20 20 20 21 22 22 22 22 23 24 25 25 23 22 22 21 21 20 19 19 18 18 18 18 18 18 19 19 19 19 19 19
25 23 22 21 21 21 21 20 21 21 21 20 21 20 20 21 22 22 22 22 22 23 25 24 23 21 20 20 20 18 18 18 17 18 18 18 18 18 19 19 19 19 19
23 22 21 21 21 20 20 20 21 21 20 21 21 21 20 21 21 21 21 21 21 22 23 23 23 22 21 19 18 18 18 17 17 18 18 18 18 18 18 18 18 18 18
21 21 21 21 21 20 20 20 20 21 20 20 20 20 20 20 20 22 22 21 21 21 22 22 22 22 20 19 19 18 18 18 19 19 18 17 17 18 18 18 18 18 18
22 22 21 22 21 20 20 20 20 21 20 20 20 20 20 20 20 19 20 21 21 21 21 21 20 20 20 20 20 19 18 19 19 19 18 17 17 17 17 17 17 17 17
21 22 22 22 20 20 20 20 20 20 20 20 20 20 21 21 20 21 20 21 22 21 21 20 19 20 20 20 20 19 19 19 19 19 19 19 18 18 17 17 17 17 17
22 22 23 24 21 19 20 20 20 20 20 20 20 20 20 21 21 20 20 20 20 19 20 20 21 19 19 20 20 19 19 21 21 20 20 19 19 18 18 18 18 18 17
22 23 21 21 19 19 21 20 20 20 20 20 20 20 21 20 20 19 19 20 20 19 21 21 21 21 20 20 19 20 19 20 20 20 20 20 20 20 20 20 19 19 19
22 20 19 19 20 21 21 20 20 21 20 20 21 21 21 20 19 19 19 18 18 17 18 18 19 19 18 18 19 19 18 18 20 19 19 19 19 19 19 19 19 18 18
21 20 19 19 20 20 20 20 20 20 21 20 19 19 19 19 19 19 18 17 17 17 16 16 16 17 18 18 17 15 15 16 16 17 16 17 18 18 19 19 19 17 16
20 20 20 19 20 20 20 20 20 19 19 18 18 18 17 17 16 18 17 18 18 18 17 16 17 16 16 16 14 14 14 13 13 15 15 16 17 18 18 17 16 15 14
20 19 20 20 19 20 20 19 19 18 18 18 19 18 17 16 15 16 16 17 17 18 18 17 15 14 14 14 13 13 14 14 15 16 17 18 18 17 16 15 13 12 12
19 20 20 20 19 20 20 19 18 18 18 18 19 18 17 16 15 15 15 16 17 17 17 16 15 15 15 15 15 14 13 13 15 17 18 17 16 14 12 12 13 14 14
Height
853 853 854 854 854 853 851 852 852 851 850 849 849 848 847 847 847 844 843 844 844 845 847 847 849 850 851 853 855 856 858 860 862 863 865 867 868 869 870 870 871 871 872
851 852 853 852 852 852 851 852 852 850 850 847 847 846 847 847 846 846 843 842 843 845 845 846 847 848 849 850 852 854 856 857 859 861 863 864 866 867 868 869 870 869 870
849 850 851 851 851 850 850 851 851 848 847 845 844 844 845 844 844 844 843 842 841 841 843 845 845 846 847 847 849 851 852 854 856 858 860 862 863 864 866 867 868 868 868
848 848 851 850 849 849 848 849 848 847 845 844 843 843 842 842 842 842 841 841 840 840 840 841 843 844 845 845 845 846 848 851 853 855 857 859 861 862 862 864 865 866 866
845 846 847 847 847 847 848 846 846 846 844 843 842 840 840 840 839 838 839 839 839 839 838 838 840 842 843 844 845 845 846 847 849 851 853 855 856 858 860 860 861 862 863
842 843 843 845 845 844 845 846 847 846 844 843 841 840 840 840 839 838 838 838 838 839 838 839 838 837 839 841 842 843 844 844 846 847 849 850 852 854 855 856 857 858 859
839 840 841 842 843 843 844 846 846 844 842 841 840 837 838 841 840 838 837 838 839 839 839 839 837 837 837 838 839 840 841 841 842 844 844 846 847 849 850 851 852 853 854
836 838 839 840 841 841 844 845 845 843 841 842 840 837 831 834 837 839 839 837 838 838 839 840 840 839 838 838 839 838 839 839 838 839 840 841 843 845 846 846 847 848 849
835 836 838 839 841 842 841 844 844 845 841 842 843 840 832 829 833 836 841 841 840 839 839 841 841 841 840 840 840 839 837 837 837 837 836 836 837 839 841 842 842 843 844
833 835 836 838 839 840 841 841 842 843 844 842 842 842 842 842 833 830 836 840 840 839 841 840 841 840 841 841 839 837 836 835 835 835 834 834 834 835 835 837 837 838 838
829 831 834 836 839 840 840 840 841 841 842 841 840 840 841 841 844 838 831 834 838 838 838 839 840 840 840 840 840 838 836 834 834 833 832 832 831 830 831 831 832 832 833
827 829 830 832 835 837 840 841 841 841 840 841 842 842 840 839 838 839 835 834 835 835 837 836 838 839 839 839 838 836 834 833 832 831 830 830 828 828 827 826 826 827 827
825 828 831 832 832 835 837 840 843 843 843 843 843 841 840 839 840 841 839 834 833 833 835 835 834 835 836 836 836 834 834 832 829 827 826 825 826 824 823 822 821 821 821
824 826 828 831 833 832 833 836 839 841 841 841 842 842 840 839 838 838 838 837 833 829 827 832 833 833 833 833 833 831 831 830 828 826 824 823 822 821 820 818 817 815 815
819 824 824 827 832 833 833 835 836 838 840 839 839 840 840 838 837 837 837 836 835 832 827 826 829 831 831 831 830 828 826 825 821 820 819 818 817 816 815 815 813 811 809
811 815 820 822 827 830 831 833 833 835 836 837 836 838 839 836 836 836 835 834 833 831 827 826 825 825 826 826 825 824 822 820 817 815 814 812 811 810 809 808 807 806 804
807 810 811 818 824 826 826 829 830 831 833 834 834 835 836 836 835 833 832 833 830 829 824 821 822 821 821 821 819 818 817 815 812 809 806 805 803 803 802 801 800 799 797
801 805 813 808 811 818 823 825 827 828 830 831 831 832 832 832 832 832 831 829 828 828 827 821 819 818 816 815 814 813 812 810 807 804 801 799 796 794 792 792 792 790 789
795 801 799 804 810 813 816 819 820 823 825 826 825 827 828 827 827 826 826 825 823 822 821 820 817 814 811 809 807 807 805 803 801 796 791 790 787 786 784 782 782 781 780
786 790 790 791 799 804 809 813 814 816 819 821 821 820 821 822 822 822 822 821 821 820 818 816 811 810 808 804 801 799 797 793 792 791 787 783 780 778 775 772 770 769 768
778 783 787 789 796 801 801 807 810 812 815 815 816 816 817 816 815 816 817 816 815 815 811 808 804 802 801 798 798 795 792 788 787 785 780 776 770 767 765 763 760 758 756
769 776 780 786 793 794 798 801 804 806 809 810 810 813 813 813 811 810 810 810 810 810 809 807 802 799 799 798 794 791 788 785 778 781 774 769 766 759 757 754 751 748 746
770 775 778 784 786 789 793 794 796 800 802 805 806 809 810 810 807 806 805 805 804 804 803 802 800 797 795 794 791 789 787 783 778 774 771 761 758 750 748 742 738 734 730
763 769 773 777 782 783 786 788 791 794 795 798 797 798 803 804 803 802 802 801 800 799 797 795 794 793 791 789 788 785 781 778 773 767 763 751 749 739 735 730 725 717 712
758 763 768 772 774 778 779 780 784 786 788 790 791 791 792 797 798 799 798 796 794 792 791 789 789 788 786 782 781 779 774 770 764 758 752 742 738 731 728 714 707 700 694
755 757 760 763 768 771 773 774 777 780 782 784 784 784 784 787 791 793 794 792 789 787 786 786 785 781 778 774 773 770 768 764 759 748 743 738 731 729 710 702 693 686 681
Wind_Speed
7 7 5 5 5 6 6 5 5 7 8 8 7 7 7 6 6 6 5 5 6 7 8 11 12 14 13 14 15 15 13 12 12 12 13 10 12 11 11 11 11 9 9
9 7 8 8 6 7 6 5 6 8 7 8 8 4 6 6 5 6 9 7 7 9 9 11 12 12 14 15 15 16 15 17 15 14 15 15 15 13 12 13 13 11 10
13 10 9 9 9 7 7 4 7 7 8 8 8 7 6 5 7 8 9 10 9 7 10 12 12 13 14 13 16 17 14 17 18 18 14 15 16 17 14 14 12 12 11
12 11 8 9 9 9 8 6 6 7 8 9 8 9 8 9 9 10 9 9 10 10 8 10 13 13 14 16 14 15 18 17 16 18 19 17 16 17 17 17 15 16 14
9 9 9 11 9 9 7 6 6 7 10 10 10 8 7 7 6 4 3 3 4 6 8 5 9 12 14 16 17 16 14 16 18 19 18 20 20 20 20 18 18 19 18
10 9 8 9 7 8 6 3 6 9 8 7 8 7 6 4 2 0 2 1 1 1 2 3 6 9 8 12 14 15 15 15 16 18 19 21 22 22 21 21 21 19 19
13 12 11 9 7 8 3 3 7 6 8 5 8 4 1 3 1 1 2 2 2 2 2 2 1 3 4 3 5 10 15 16 19 18 18 19 20 23 24 23 23 23 22
11 10 10 7 5 3 2 4 4 7 4 4 6 6 2 6 5 1 0 2 2 2 2 4 3 3 1 2 1 6 10 10 11 12 17 20 20 21 23 24 24 23 24
10 8 7 6 5 4 5 3 4 4 5 4 4 4 2 2 3 4 2 3 3 3 3 4 5 6 6 3 3 4 4 6 10 13 14 13 13 19 26 26 24 24 23
7 7 7 6 6 5 3 3 3 3 3 4 2 0 2 5 4 2 5 1 1 3 4 4 4 5 5 3 4 4 3 3 5 8 10 13 15 15 16 21 21 24 26
10 9 8 7 6 5 4 3 3 2 2 4 2 2 2 3 1 5 3 1 2 1 1 1 1 1 2 3 3 4 6 6 5 5 6 8 10 14 20 17 21 24 22
10 11 12 11 9 6 6 4 4 4 3 3 4 3 4 3 3 6 5 5 4 4 5 5 4 4 3 3 5 7 5 5 7 7 8 8 8 9 11 15 17 18 20
10 10 11 11 9 8 6 4 6 5 4 5 5 6 4 5 4 8 9 10 7 7 7 6 5 6 6 6 7 9 13 10 7 7 8 7 9 10 11 12 13 18 19
10 10 12 11 10 10 9 7 7 8 7 7 7 8 8 8 7 8 9 11 7 11 7 6 6 8 8 9 13 15 12 15 17 14 12 10 9 10 12 14 15 16 18
10 12 13 11 11 11 10 9 9 9 9 8 8 9 10 10 10 9 10 10 11 8 8 11 8 9 11 12 14 15 16 17 21 19 15 15 15 15 16 17 18 18 20
16 16 14 12 12 12 11 12 11 11 10 9 9 9 11 12 11 11 12 12 12 13 10 15 15 14 13 16 16 17 17 21 23 20 22 20 19 20 20 21 21 21 21
18 20 17 11 13 14 14 14 13 12 12 10 11 11 12 13 13 13 10 13 14 14 16 18 18 18 15 17 18 18 19 20 22 22 21 23 24 24 24 25 26 26 25
19 21 18 16 21 18 16 16 15 13 13 12 11 12 13 14 14 13 15 15 16 16 19 20 23 23 21 19 19 20 22 24 24 23 23 27 28 25 25 27 29 30 29
23 24 21 22 20 18 20 21 17 15 14 16 14 14 14 14 15 15 12 15 16 14 17 18 22 24 24 23 22 19 20 24 24 24 25 25 23 24 28 32 32 31 31
30 32 25 22 26 23 23 21 18 17 17 17 16 16 15 15 16 15 14 14 16 17 19 21 20 20 22 25 21 18 22 24 26 27 27 27 28 31 31 31 31 33 36
36 29 20 19 20 22 22 21 19 18 18 17 17 16 16 16 17 17 15 17 16 19 21 22 24 22 23 19 19 24 26 25 28 28 29 29 28 29 29 29 32 35 37
39 25 18 17 22 22 23 24 21 19 18 18 16 17 16 16 18 18 19 20 19 18 19 20 22 21 20 22 23 22 24 26 22 28 28 32 30 33 33 34 38 41 46
28 21 17 18 21 22 23 25 24 22 19 17 13 13 17 19 18 15 15 18 18 17 18 16 19 21 21 22 23 21 23 26 29 31 29 33 30 34 36 39 39 45 49
32 26 21 18 20 22 25 27 27 21 21 17 15 13 17 24 24 19 13 16 17 16 16 17 18 19 20 21 22 24 25 27 28 28 28 29 30 35 39 43 50 49 49
28 25 23 21 20 24 24 26 27 23 20 24 22 20 19 21 18 19 14 15 16 17 17 17 16 20 24 23 21 19 20 20 22 26 28 30 33 37 42 46 46 46 47
25 25 24 20 19 21 23 25 22 20 20 23 22 21 19 20 21 22 15 14 15 16 15 17 19 21 20 20 20 20 19 21 24 26 28 28 36 33 20 38 37 35 35
Wind_Direction
242 243 257 277 286 285 287 316 310 313 309 297 301 301 303 306 305 299 291 284 258 216 216 216 223 225 222 219 220 220 220 221 222 221 220 227 220 226 226 226 225 233 238
245 254 264 271 281 277 288 299 309 309 306 305 297 297 304 305 302 298 295 289 282 241 227 218 228 229 228 224 221 221 224 227 230 227 228 227 229 235 233 235 241 242 240
245 250 258 271 274 273 263 287 298 303 308 307 300 298 299 286 296 294 287 278 274 254 240 233 230 236 236 235 223 227 231 227 230 236 239 238 235 236 246 250 248 255 250
266 268 264 261 268 265 270 278 283 312 312 310 303 292 298 292 291 289 286 283 267 271 248 247 241 245 244 238 232 229 231 232 239 241 240 241 241 243 248 250 246 254 256
256 263 266 266 260 261 253 275 303 316 316 304 300 292 294 290 296 310 306 303 280 261 262 241 261 249 246 239 237 238 241 240 237 239 245 247 248 250 250 250 248 249 255
253 254 254 253 260 242 253 283 318 323 309 323 317 312 296 288 317 171 71 46 68 32 304 268 251 244 243 250 243 245 248 251 250 247 246 247 250 251 253 252 253 254 255
247 247 255 253 242 241 257 290 312 313 320 337 298 324 234 217 282 131 123 28 24 11 14 24 329 236 227 273 215 222 235 245 246 250 254 253 252 252 252 254 256 257 257
238 233 239 248 216 236 242 296 325 316 306 342 332 285 230 169 199 169 27 44 21 3 13 29 41 47 40 120 193 250 248 246 232 233 249 255 254 258 259 259 257 257 256
247 235 232 227 209 248 291 301 322 326 325 321 346 321 266 11 333 159 211 25 28 30 30 42 50 41 45 45 68 353 295 267 266 252 247 241 242 251 248 256 259 259 260
230 217 210 207 206 252 281 280 312 318 312 325 307 314 345 350 326 204 162 148 87 59 66 73 67 56 51 58 57 13 352 317 295 283 271 262 261 262 261 255 257 259 260
214 211 205 202 212 257 232 247 271 280 290 303 281 305 317 292 310 304 307 82 289 166 135 290 327 339 2 38 25 5 33 25 355 327 311 300 281 263 259 259 258 257 263
217 212 206 195 200 211 226 254 248 240 243 271 281 264 259 286 313 301 289 284 328 280 296 262 279 292 303 313 305 334 337 356 358 356 343 324 313 308 293 274 265 261 264
215 202 197 198 201 207 212 234 248 252 253 270 261 286 269 257 274 294 296 293 297 293 291 288 269 280 273 279 293 299 311 304 314 327 334 332 323 315 311 311 297 273 262
222 200 201 212 215 207 206 209 230 244 245 252 268 277 284 274 269 266 278 299 297 292 263 249 279 295 285 284 287 303 305 306 299 303 297 296 311 312 322 319 306 295 282
205 204 200 205 221 216 210 214 228 240 246 250 258 264 270 278 275 276 275 277 286 294 298 303 298 290 287 297 299 294 286 278 280 291 287 284 285 288 295 309 316 306 287
190 195 196 196 209 213 212 222 237 239 237 250 258 264 263 268 269 267 271 273 271 281 289 296 297 301 286 285 289 291 287 283 288 291 291 285 280 281 285 293 302 308 301
195 190 184 183 208 217 216 225 238 242 238 244 253 259 258 263 266 275 270 272 273 281 285 292 298 298 296 283 290 289 290 289 286 280 282 283 285 284 282 284 288 297 294
193 198 197 195 208 217 225 225 233 241 242 245 252 253 259 261 261 263 270 268 276 282 281 290 295 293 291 291 285 288 293 292 288 282 280 278 283 284 284 282 286 292 291
187 191 196 213 222 211 216 224 226 232 238 242 240 246 256 261 263 268 276 280 277 269 274 278 286 292 294 290 283 282 285 289 287 281 277 282 288 285 284 285 287 288 287
190 201 216 233 220 211 213 223 221 225 231 241 245 242 250 257 262 269 270 274 275 275 279 284 282 283 288 288 275 273 283 295 296 294 289 283 281 280 278 278 282 282 283
196 207 226 223 212 216 216 223 225 225 238 242 248 251 251 254 253 259 268 278 287 285 288 293 297 293 279 302 306 301 297 298 294 290 292 291 288 282 281 281 281 280 282
199 207 202 211 221 220 228 222 219 227 233 243 252 262 263 267 268 266 269 266 266 270 276 280 287 292 293 291 293 298 301 295 295 291 293 289 287 283 283 283 284 280 278
205 217 211 220 225 231 233 231 230 227 234 248 261 273 284 280 278 265 265 274 280 281 275 273 277 281 290 290 297 298 288 290 285 290 291 285 284 285 285 286 286 289 282
213 217 218 228 241 240 235 236 235 226 233 236 229 248 292 290 286 264 257 268 273 276 271 266 275 282 282 285 287 288 288 285 284 283 278 271 279 283 295 293 288 287 279
214 218 224 230 240 242 236 234 233 227 224 233 245 253 263 285 285 277 265 272 280 283 286 277 282 287 290 294 292 288 286 284 286 293 293 289 301 300 300 293 290 287 279
216 220 219 227 232 238 236 239 228 221 224 230 248 253 263 270 270 263 264 268 274 281 287 288 288 289 289 285 284 268 266 268 282 289 301 309 305 309 304 297 291 290 283